When you browse on this site, cookies collect data to enhance your experience and personalize the content and advertising you see.
Visit our Privacy Policy to learn more. By continuing to use the site, you agree to this use of cookies and data.

Meteo pe oră la Dzielec

Astăzi, 21 Septembrie, Luni

Timp Temperatura Precipitaţii Vânt Presiune Umiditate
00:00 +12°C° 0 mm 1 m/s 740 mmHg 68%
01:00 +12°C° 0 mm 1 m/s 740 mmHg 68%
02:00 +12°C° 0 mm 1 m/s 740 mmHg 68%
03:00 +11°C° 0 mm 1 m/s 740 mmHg 68%
04:00 +11°C° 0 mm 1 m/s 739 mmHg 68%
05:00 +12°C° 0 mm 1 m/s 740 mmHg 65%
06:00 +13°C° 0 mm 1 m/s 740 mmHg 63%
07:00 +14°C° 0 mm 1 m/s 740 mmHg 60%
08:00 +18°C° 0 mm 1 m/s 740 mmHg 55%
09:00 +20°C° 0 mm 1 m/s 740 mmHg 49%
10:00 +22°C° 0 mm 1 m/s 740 mmHg 43%
11:00 +23°C° 0 mm 1 m/s 740 mmHg 41%
12:00 +24°C° 0 mm 1 m/s 740 mmHg 39%
13:00 +25°C° 0 mm 2 m/s 740 mmHg 37%
14:00 +25°C° 0 mm 2 m/s 740 mmHg 41%
15:00 +24°C° 0 mm 1 m/s 740 mmHg 46%
16:00 +24°C° 0 mm 1 m/s 739 mmHg 50%
17:00 +21°C° 0 mm 1 m/s 739 mmHg 54%
18:00 +19°C° 0 mm 1 m/s 739 mmHg 59%
19:00 +16°C° 0 mm 1 m/s 739 mmHg 63%
20:00 +15°C° 0 mm 1 m/s 739 mmHg 64%
21:00 +14°C° 0 mm 1 m/s 739 mmHg 64%
22:00 +14°C° 0 mm 1 m/s 739 mmHg 65%
23:00 +14°C° 0 mm 1 m/s 739 mmHg 65%

Mâine, 22 Septembrie, Marţi

Timp Temperatura Precipitaţii Vânt Presiune Umiditate
00:00 +13°C° 0 mm 1 m/s 739 mmHg 66%
01:00 +13°C° 0 mm 1 m/s 739 mmHg 66%
02:00 +13°C° 0 mm 1 m/s 739 mmHg 67%
03:00 +12°C° 0 mm 1 m/s 739 mmHg 68%
04:00 +12°C° 0 mm 1 m/s 738 mmHg 70%
05:00 +13°C° 0 mm 1 m/s 738 mmHg 68%
06:00 +14°C° 0 mm 1 m/s 739 mmHg 66%
07:00 +15°C° 0 mm 1 m/s 739 mmHg 64%
08:00 +17°C° 0 mm 2 m/s 739 mmHg 57%
09:00 +20°C° 0 mm 2 m/s 739 mmHg 51%
10:00 +22°C° 0 mm 3 m/s 739 mmHg 44%
11:00 +24°C° 0 mm 3 m/s 738 mmHg 42%
12:00 +25°C° 0 mm 3 m/s 738 mmHg 40%
13:00 +26°C° 0 mm 3 m/s 738 mmHg 38%
14:00 +26°C° 0 mm 3 m/s 737 mmHg 42%
15:00 +25°C° 0 mm 3 m/s 737 mmHg 45%
16:00 +25°C° 0 mm 3 m/s 736 mmHg 48%
17:00 +21°C° 0 mm 3 m/s 736 mmHg 51%
18:00 +19°C° 0 mm 3 m/s 736 mmHg 55%
19:00 +17°C° 0 mm 2 m/s 736 mmHg 58%
20:00 +17°C° 0 mm 2 m/s 736 mmHg 59%
21:00 +16°C° 0 mm 2 m/s 736 mmHg 60%
22:00 +16°C° 0 mm 2 m/s 736 mmHg 61%
23:00 +15°C° 0 mm 2 m/s 735 mmHg 62%

Poimâine, 23 Septembrie, Miercuri

Timp Temperatura Precipitaţii Vânt Presiune Umiditate
00:00 +15°C° 0 mm 2 m/s 735 mmHg 63%
01:00 +15°C° 0 mm 2 m/s 735 mmHg 64%
02:00 +15°C° 0 mm 2 m/s 735 mmHg 64%
03:00 +14°C° 0 mm 2 m/s 735 mmHg 65%
04:00 +14°C° 0 mm 2 m/s 735 mmHg 66%
05:00 +14°C° 0 mm 3 m/s 735 mmHg 65%
06:00 +16°C° 0 mm 3 m/s 735 mmHg 65%
07:00 +16°C° 0 mm 3 m/s 735 mmHg 64%
08:00 +18°C° 0 mm 4 m/s 734 mmHg 59%
09:00 +20°C° 0 mm 5 m/s 734 mmHg 54%
10:00 +23°C° 0 mm 5 m/s 734 mmHg 49%
11:00 +25°C° 0 mm 5 m/s 734 mmHg 47%
12:00 +26°C° 0 mm 6 m/s 734 mmHg 45%
13:00 +27°C° 0 mm 6 m/s 734 mmHg 42%
14:00 +26°C° 0 mm 5 m/s 734 mmHg 44%
15:00 +25°C° 0 mm 5 m/s 733 mmHg 46%
16:00 +23°C° 0 mm 4 m/s 733 mmHg 48%
17:00 +22°C° 0 mm 3 m/s 733 mmHg 51%
18:00 +20°C° 0 mm 3 m/s 733 mmHg 54%
19:00 +18°C° 0 mm 3 m/s 733 mmHg 57%
20:00 +17°C° 0 mm 2 m/s 733 mmHg 58%
21:00 +17°C° 0 mm 2 m/s 733 mmHg 59%
22:00 +17°C° 0 mm 2 m/s 733 mmHg 60%
23:00 +16°C° 0 mm 2 m/s 733 mmHg 61%

24 Septembrie, Joi

Timp Temperatura Precipitaţii Vânt Presiune Umiditate
00:00 +16°C° 0 mm 2 m/s 732 mmHg 62%
01:00 +16°C° 0 mm 2 m/s 732 mmHg 63%
02:00 +15°C° 0 mm 2 m/s 732 mmHg 65%
03:00 +15°C° 0 mm 2 m/s 732 mmHg 66%
04:00 +15°C° 0 mm 2 m/s 732 mmHg 67%
05:00 +15°C° 0 mm 2 m/s 733 mmHg 67%
06:00 +16°C° 0 mm 2 m/s 733 mmHg 67%
07:00 +16°C° 0 mm 2 m/s 733 mmHg 67%
08:00 +18°C° 0 mm 2 m/s 733 mmHg 62%
09:00 +20°C° 0 mm 3 m/s 734 mmHg 58%
10:00 +24°C° 0 mm 3 m/s 734 mmHg 53%
11:00 +24°C° 0 mm 3 m/s 734 mmHg 52%
12:00 +25°C° 0 mm 3 m/s 734 mmHg 50%
13:00 +26°C° 0 mm 3 m/s 734 mmHg 48%
14:00 +26°C° 0 mm 3 m/s 734 mmHg 51%
15:00 +25°C° 0 mm 3 m/s 734 mmHg 54%
16:00 +25°C° 0 mm 2 m/s 734 mmHg 57%
17:00 +22°C° 0 mm 3 m/s 734 mmHg 64%
18:00 +20°C° 0 mm 3 m/s 734 mmHg 71%
19:00 +18°C° 0 mm 3 m/s 734 mmHg 78%
20:00 +18°C° 0 mm 3 m/s 734 mmHg 81%
21:00 +17°C° 0 mm 3 m/s 734 mmHg 83%
22:00 +17°C° 0 mm 2 m/s 734 mmHg 86%
23:00 +17°C° 0 mm 2 m/s 734 mmHg 87%

25 Septembrie, Vineri

Timp Temperatura Precipitaţii Vânt Presiune Umiditate
00:00 +16°C° 0 mm 2 m/s 734 mmHg 87%
01:00 +16°C° 0 mm 2 m/s 734 mmHg 88%
02:00 +16°C° 0 mm 2 m/s 734 mmHg 89%
03:00 +16°C° 0 mm 3 m/s 733 mmHg 89%
04:00 +16°C° 0 mm 3 m/s 733 mmHg 90%
05:00 +16°C° 0 mm 3 m/s 733 mmHg 87%
06:00 +17°C° 0 mm 4 m/s 732 mmHg 84%
07:00 +17°C° 0 mm 5 m/s 732 mmHg 81%
08:00 +19°C° 0 mm 6 m/s 732 mmHg 73%
09:00 +21°C° 0 mm 7 m/s 732 mmHg 65%
10:00 +23°C° 0 mm 8 m/s 732 mmHg 58%
11:00 +24°C° 0 mm 8 m/s 731 mmHg 56%
12:00 +26°C° 0 mm 7 m/s 731 mmHg 53%
13:00 +26°C° 0 mm 7 m/s 731 mmHg 51%
14:00 +26°C° 0 mm 6 m/s 730 mmHg 54%
15:00 +25°C° 0 mm 5 m/s 730 mmHg 57%
16:00 +23°C° 0 mm 4 m/s 729 mmHg 61%
17:00 +22°C° 0 mm 4 m/s 729 mmHg 62%
18:00 +21°C° 0 mm 4 m/s 728 mmHg 64%
19:00 +21°C° 0 mm 4 m/s 728 mmHg 66%
20:00 +20°C° 0 mm 4 m/s 727 mmHg 67%
21:00 +20°C° 0 mm 5 m/s 727 mmHg 69%
22:00 +20°C° 0 mm 5 m/s 727 mmHg 71%
23:00 +20°C° 0.1 mm 5 m/s 726 mmHg 74%

26 Septembrie, Sâmbătă

Timp Temperatura Precipitaţii Vânt Presiune Umiditate
00:00 +19°C° 0.1 mm 6 m/s 726 mmHg 77%
01:00 +19°C° 0.1 mm 6 m/s 725 mmHg 79%
02:00 +17°C° 0 mm 6 m/s 725 mmHg 81%
03:00 +17°C° 0 mm 5 m/s 724 mmHg 84%
04:00 +17°C° 0 mm 5 m/s 724 mmHg 86%
05:00 +17°C° 0 mm 5 m/s 724 mmHg 84%
06:00 +17°C° 0 mm 5 m/s 724 mmHg 82%
07:00 +17°C° 0 mm 6 m/s 724 mmHg 81%
08:00 +17°C° 0.3 mm 5 m/s 724 mmHg 82%
09:00 +18°C° 0.3 mm 4 m/s 725 mmHg 84%
10:00 +18°C° 0.3 mm 4 m/s 725 mmHg 85%
11:00 +18°C° 0.2 mm 4 m/s 725 mmHg 83%
12:00 +19°C° 0.2 mm 4 m/s 725 mmHg 81%
13:00 +20°C° 0.2 mm 4 m/s 725 mmHg 80%
14:00 +19°C° 0.2 mm 3 m/s 725 mmHg 82%
15:00 +19°C° 0.2 mm 2 m/s 724 mmHg 84%
16:00 +19°C° 0.2 mm 2 m/s 724 mmHg 86%
17:00 +18°C° 0.7 mm 2 m/s 724 mmHg 89%
18:00 +18°C° 0.7 mm 2 m/s 723 mmHg 92%
19:00 +17°C° 0.7 mm 3 m/s 723 mmHg 95%
20:00 +17°C° 0.4 mm 4 m/s 723 mmHg 94%
21:00 +16°C° 0.4 mm 5 m/s 722 mmHg 92%
22:00 +17°C° 0.4 mm 6 m/s 722 mmHg 91%
23:00 +16°C° 0.3 mm 6 m/s 722 mmHg 90%
Arată mai mult